{"data":{"norad_id":59028,"intl_designator":"2024-038F","name":"STARLINK-31206","alt_names":[],"object_type":"PAYLOAD","status":"ACTIVE","operator":null,"country":"US","launch_date":"2024-02-25","launch_site_code":"AFETR","launch_vehicle":null,"mission":null,"orbit_class":"UNKNOWN","rcs_meters":null,"size_class":null,"mass_kg":null,"dimensions":null,"purposes":["comms"],"wikipedia_slug":null,"has_3d_model":false,"image_url":null,"decayed_at":null,"tle_current":{"epoch":"2026-05-24T23:32:09.989088Z","epoch_age_seconds":79995,"freshness":"FRESH","line1":"1 59028U 24038F   26144.98067117 -.00002131  00000+0 -67940-4 0  9995","line2":"2 59028  43.0005 251.1675 0001169 263.9754  96.0964 15.27585853127191","mean_motion":15.27585853,"eccentricity":0.0001169,"inclination_deg":43.0005,"raan_deg":251.1675,"arg_perigee_deg":263.9754,"mean_anomaly_deg":96.0964,"bstar":-6.794e-5,"rev_number":12719,"period_min":94.266387527222,"perigee_km":482.22949950216,"apogee_km":483.83364071385,"semimajor_km":6861.168570108,"source":"CELESTRAK","updated_at":"2026-05-25T13:38:18.822936Z"}}}